Regional Weather Roundup
Issued by NWS

Home | Current Version | Previous Version | Graphics & Text | Print | Product List | Glossary On
Versions: 1 2 3 4 5 6 7 8 9 10 11 12 13 14 15 16 17 18 19 20 21 22 23 24 25 26 27 28 29 30 31 32 33 34 35 36 37 38 39 40 41 42 43 44 45 46 47 48 49 50
000
ASUS43 KMKX 020224
RWRWI

WISCONSIN REGIONAL WEATHER ROUNDUP
NATIONAL WEATHER SERVICE MILWAUKEE/SULLIVAN WI
900 PM CDT MON JUN 01 2015

NOTE: "FAIR" INDICATES FEW OR NO CLOUDS BELOW 12,000 FEET WITH NO
SIGNIFICANT WEATHER AND/OR OBSTRUCTIONS TO VISIBILITY.

WIZ001-002-006>008-014>016-023>028-020300-
NORTHWEST WISCONSIN

CITY           SKY/WX    TMP DP  RH WIND       PRES   REMARKS
SUPERIOR ARPT  PTCLDY    42  34  74 NE8       30.17F
ASHLAND        PTCLDY    45  40  82 NW5       30.17F
HAYWARD        PTCLDY    61  41  47 SE7       30.16F
SIREN          PTCLDY    62  41  46 S3        30.13F
CUMBERLAND     PTCLDY    59  43  55 S6        30.15F
RICE LAKE      PTCLDY    61  42  48 SE5       30.17F
CHETEK         PTCLDY    61  46  56 E7        30.16F
LADYSMITH      CLEAR     59  44  56 SE3       30.19F
EAU CLAIRE     MOCLDY    61  37  41 S5        30.16S
MENOMONIE      MOCLDY    61  42  49 SE6       30.16S
NEW RICHMOND   MOCLDY    60  39  45 SE5       30.14F
OSCEOLA        PTCLDY    61  42  49 SE5       30.16F
$$

WIZ003>005-009-010-017-018-020300-
NORTH CENTRAL WISCONSIN

CITY           SKY/WX    TMP DP  RH WIND       PRES   REMARKS
MANITOWISH WTR CLEAR     53  37  55 S6        30.19S
ARBOR VITAE    CLEAR     57  35  42 S5        30.20S
WOODRUFF       CLEAR     57  35  42 S5        30.20S
RHINELANDER    CLEAR     57  36  45 SE5       30.22S
EAGLE RIVER    CLEAR     56  32  40 S3        30.20S
LAND O LAKES   CLEAR     54  34  46 S3        30.21S
PHILLIPS       PTCLDY    57  40  53 S5        30.18S
TOMAHAWK       CLEAR     51  39  63 CALM      30.21S
MEDFORD        PTCLDY    54  39  57 SE3       30.20S
MERRILL        CLEAR     54  39  57 SE5       30.22S
$$

WIZ029-030-035-036-043>047-020300-
CENTRAL WISCONSIN

CITY           SKY/WX    TMP DP  RH WIND       PRES   REMARKS
WAUSAU         CLEAR     57  37  47 E5        30.20R
MOSINEE        CLEAR     54  39  58 E5        30.22S
MARSHFIELD     CLEAR     57  36  45 SE6       30.20S
STEVENS POINT  CLEAR     53  38  57 CALM      30.21S
WAUPACA        CLEAR     56  42  58 CALM      30.22S
WAUTOMA        CLEAR     54  39  56 CALM      30.22S
WISC RAPIDS    CLEAR     56  33  42 SE6       30.21S
CAMP DOUGLAS   PTCLDY    50  46  87 E5        30.18F
$$

WIZ011>013-019>022-031-037>040-048>050-020300-
NORTHEAST WISCONSIN

CITY           SKY/WX    TMP DP  RH WIND       PRES   REMARKS
ANTIGO         CLEAR     51  43  73 E6        30.22S
SHAWANO        CLEAR     54  43  66 CALM      30.22F
OCONTO         CLEAR     47  41  80 CALM      30.22S
STURGEON BAY   CLEAR     52  30  43 CALM      30.25S
GREEN BAY      CLEAR     53  42  66 MISG      30.22F
MANITOWOC      CLEAR     52  35  52 CALM      30.23F
APPLETON       CLEAR     57  32  38 E5        30.22S
CLINTONVILLE   CLEAR     54  37  54 E5        30.22S
OSHKOSH        CLEAR     56  37  49 E5        30.21S
$$

WIZ032>034-041-042-053>061-020300-
SOUTHWEST WISCONSIN

CITY           SKY/WX    TMP DP  RH WIND       PRES   REMARKS
LA CROSSE      PTCLDY    64  40  41 SE5       30.16S
SPARTA         CLEAR     54  40  60 E3        30.19S
VIROQUA        PTCLDY    57  38  49 SE5       30.18F
BOSCOBEL       CLEAR     54  44  69 NE3       30.18R
PRAIRIE DU CHI PTCLDY    59  43  56 E3        30.16S
PLATTEVILLE    PTCLDY    58  44  58 E5        30.18S
$$

WIZ056-057-062-063-064-067-068-020300-
SOUTH CENTRAL WISCONSIN

CITY           SKY/WX    TMP DP  RH WIND       PRES   REMARKS
REEDSBURG      CLEAR     56  37  48 E3        30.19S
BARABOO/DELLS  CLEAR     55  33  43 SE3       30.20S
LONE ROCK      CLEAR     56  38  50 E5        30.19S
MINERAL POINT  CLEAR     59  32  36 E7        30.19S
MADISON        PTCLDY    56  29  35 SE7       30.20S
MIDDLETON      CLEAR     58  29  33 E5        30.20S
WATERTOWN      CLEAR     53  34  49 CALM      30.21S
MONROE         CLEAR     54  34  47 E6        30.19S
JANESVILLE     CLEAR     54  36  50 E6        30.20S
$$

WIZ051-052-058>065-066-070>072-020300-
SOUTHEAST WISCONSIN

CITY           SKY/WX    TMP DP  RH WIND       PRES   REMARKS
MILWAUKEE      PTCLDY    47  33  58 N8        30.22F
WAUKESHA       CLEAR     46  32  57 E5        30.23S
MILWAUKEE/TIMM CLEAR     52  30  43 NE5       30.23F
RACINE         CLEAR     47  35  63 N5        30.23F
BURLINGTON     CLEAR     48  34  59 E3        30.22S
KENOSHA        CLEAR     48  35  60 NE6       30.22S
FOND DU LAC    CLEAR     53  38  56 E3        30.22S
SHEBOYGAN      CLEAR     45  36  70 NE6       30.23S
WEST BEND      CLEAR     50  36  57 NE5       30.23R
JUNEAU         CLEAR     53  34  48 E6        30.22F
$$

LSZ147-162-020300-
LAKE SUPERIOR

STATION/POSITION TIME  TEMP    WIND        PRES    WAVE
                       AIR SEA DIR/SP/G            HT/PER
                 (UTC) (F)     (DEG/KT/KT) (MB)    (FT/S)
W MID LAKE BUOY  0150   40 37   70/ 12/ 14   N/A     1/ 3
DEVILS ISLAND    0200   42      10/  9/  9   N/A
PORT WING        0140   42      30/ 14/ 17   N/A
SAXON HARBOR     0140   45        CALM       N/A
$$

LMZ867-665-643>646-020300-
LAKE MICHIGAN

STATION/POSITION TIME  TEMP    WIND        PRES    WAVE
                       AIR SEA DIR/SP/G            HT/PER
                 (UTC) (F)     (DEG/KT/KT) (MB)    (FT/S)
CHAMBERS ISLAND  0100   54      CALM  /  2   N/A
N MID LAKE BUOY  0150   45 37   40/  4/  4   N/A     0
NORTHPORT PIER   0200   51      CALM  / 13   N/A
SISTER BAY       0103   60        CALM       N/A
ALGOMA LAKESHORE 0139           30/  2/  5   N/A
KEWAUNEE LAKESHO 0200   51      10/  2/  4   N/A
SHEBOYGAN LAKESH 0200   51     360/ 10/ 11   N/A
PORT WASHINGTON  0140   53      10/  3/  9   N/A
ATWATER BUOY     0200   47     350/  8/  8   N/A
MILWAUKEE LAKESH 0200   50      10/  9/ 11   N/A
S MID LAKE BUOY  0150   41 38  350/  8/ 10   N/A     1/ 3
KENOSHA   LAKESH 0200   49      10/ 11/ 15   N/A
$$

TC  - TEMPERATURE IN CELSIUS
VSB - VISIBILITY IN STATUTE MILES
WCI - WIND CHILL INDEX
HX  - HEAT INDEX



USA.gov is the U.S. government's official web portal to all federal, state and local government web resources and services.